Wind_Speed
21 22 22 23 24 24 23 22 22 22 22 22 23 23 23 23 24 25 24 23 22 22 21 21 20 20 20 20 19 19 19 18 18 18 17 17 17 17 17 17 17 17 16 16 15 15 14 14 14
22 23 23 24 24 24 23 24 24 24 24 25 25 26 26 27 26 26 27 26 25 24 24 23 23 22 22 22 22 21 21 20 20 19 19 19 19 19 19 18 19 19 18 17 17 17 17 17 16
23 24 25 26 26 25 25 25 25 26 27 27 28 29 28 29 28 29 29 28 27 27 26 26 25 24 24 24 24 24 23 23 22 22 21 21 21 21 20 20 20 20 19 19 18 18 18 18 18
24 25 26 27 27 26 27 27 26 28 28 28 30 31 31 31 31 31 31 30 29 29 28 28 27 27 27 26 26 26 26 25 24 23 23 23 22 22 22 22 22 22 21 21 20 20 20 20 20
25 26 27 28 28 28 28 28 28 30 30 30 31 32 33 33 33 33 33 33 32 31 30 30 30 29 29 28 27 27 27 26 26 25 25 25 24 23 23 24 23 23 23 22 22 21 21 21 22
26 28 29 29 29 29 29 30 31 32 32 32 32 33 33 34 34 34 35 35 34 33 32 31 31 31 30 29 29 28 28 28 27 27 26 26 26 26 25 25 24 24 24 24 23 23 23 22 22
27 28 29 30 30 31 31 31 33 34 34 34 34 35 35 35 35 35 35 35 35 35 33 33 33 32 32 31 31 30 30 30 29 29 28 28 28 29 28 27 27 26 26 26 26 26 25 25 24
27 29 29 30 31 31 32 32 34 35 35 35 35 36 36 36 36 36 36 36 36 37 36 35 34 34 34 33 33 32 32 32 31 31 30 30 30 30 30 29 28 28 28 28 28 28 28 27 27
28 29 30 30 31 31 31 32 32 34 34 34 34 36 37 37 38 38 37 37 37 37 38 37 36 35 35 35 34 34 34 33 33 33 32 32 31 30 30 30 30 30 30 30 30 30 30 29 28
29 30 30 30 31 31 31 31 31 33 33 33 34 36 37 38 38 38 37 37 38 38 38 38 38 37 36 36 35 35 35 35 35 35 35 34 33 32 32 32 32 32 32 32 31 31 31 30 30
29 29 29 29 30 30 30 30 31 33 32 33 33 34 35 37 38 38 38 38 38 38 38 39 38 38 38 37 37 36 36 36 37 37 37 35 34 34 33 33 33 33 34 33 32 32 32 32 31
28 28 28 29 29 30 30 30 31 32 32 33 33 34 33 34 35 36 37 38 38 39 39 39 39 39 39 39 38 38 38 38 38 38 38 37 36 36 36 35 34 34 34 35 34 33 33 33 33
27 27 28 29 29 29 29 30 31 31 31 32 33 33 32 33 34 34 35 36 38 39 39 39 40 41 40 39 39 39 39 38 38 39 39 39 39 38 38 37 37 37 36 36 35 35 34 34 34
27 27 28 29 29 29 30 30 30 30 31 32 32 33 33 33 33 33 33 34 36 38 39 39 39 41 40 40 40 39 39 39 39 39 39 40 40 38 38 39 39 38 37 37 37 36 35 35 35
26 27 28 29 30 30 30 29 29 30 31 32 33 33 32 32 32 33 33 34 35 37 38 39 39 40 41 40 41 40 40 40 40 40 40 40 41 41 41 40 39 39 38 38 37 37 36 36 36
26 27 27 28 30 30 31 29 29 30 32 33 33 33 33 32 32 33 34 34 35 36 37 38 40 40 41 41 42 41 40 41 40 40 40 40 41 41 41 40 40 39 39 38 38 38 38 37 37
26 26 27 27 28 30 31 30 30 31 32 33 33 33 34 33 33 33 34 34 34 35 36 37 38 40 42 43 43 42 42 41 40 40 40 40 41 41 42 41 41 40 39 38 38 39 40 39 39
26 26 26 27 28 29 30 30 30 30 31 32 33 33 33 33 33 34 34 33 33 34 35 36 37 39 40 42 42 42 42 42 41 40 41 41 41 42 42 41 40 40 39 39 39 39 40 40 40
26 27 27 27 28 29 30 30 29 29 31 32 32 33 33 32 32 33 34 33 33 33 35 36 37 38 39 40 41 41 41 41 41 40 40 42 42 41 41 40 40 40 40 40 40 39 39 40 40
27 27 27 27 28 29 29 29 29 28 29 30 31 31 31 31 31 32 33 33 34 34 35 36 36 37 38 39 40 41 41 41 40 40 40 40 40 40 42 42 40 40 41 41 40 40 40 40 40
26 26 26 27 27 28 29 28 27 27 28 29 29 30 30 30 30 30 31 32 34 35 35 35 36 36 37 38 39 40 40 40 40 40 39 38 38 40 40 42 40 40 40 40 40 40 40 39 40
25 25 25 26 26 26 27 27 25 25 27 28 28 28 29 29 29 30 30 31 32 33 34 34 34 35 36 37 38 38 38 38 39 39 39 38 37 39 40 40 40 38 38 38 38 39 39 39 39
23 23 24 25 26 25 25 26 24 25 25 26 26 27 27 27 27 28 29 29 29 31 32 32 32 33 34 35 36 36 37 37 37 38 38 39 38 38 38 38 38 37 36 37 37 37 37 37 38
22 22 23 24 25 24 23 25 24 24 24 25 25 26 26 26 26 27 27 27 28 29 29 30 32 32 34 34 34 36 36 35 36 37 38 39 38 38 37 37 38 36 36 36 36 36 36 36 37
22 22 23 23 24 23 22 24 23 23 23 23 24 25 26 26 26 26 26 26 27 27 28 29 30 31 33 33 33 34 34 34 35 36 38 39 37 37 37 37 37 37 36 35 35 35 35 36 36
22 22 23 23 24 23 22 23 23 22 22 23 23 24 25 25 25 24 23 24 25 26 27 29 29 30 31 31 32 32 32 33 34 35 37 37 37 36 37 38 37 37 36 35 35 35 36 36 36
23 23 23 24 25 25 23 23 23 23 22 23 24 25 25 24 25 25 23 24 25 26 27 27 28 29 30 31 31 32 33 34 35 35 35 35 35 35 35 36 36 36 37 37 37 36 36 36 36
24 24 24 24 25 26 25 24 25 24 23 24 25 26 26 25 25 25 24 24 24 26 26 27 27 28 28 30 32 33 33 34 35 34 34 34 34 34 35 35 35 36 36 37 36 36 36 36 35
23 23 24 25 26 26 26 25 24 25 24 25 26 26 26 25 24 24 25 25 25 26 27 27 27 28 29 30 31 31 32 33 33 33 33 34 34 34 34 35 34 35 35 35 35 36 36 36 35
23 23 23 24 25 26 27 26 25 26 26 26 26 27 27 26 25 24 25 25 26 26 27 27 28 28 28 29 29 30 31 32 32 32 32 33 34 34 35 35 35 35 35 36 36 36 36 36 36
Wind_Direction
250 251 251 252 252 254 255 256 258 259 260 263 264 264 263 262 261 261 261 260 258 258 259 259 259 259 258 257 258 259 259 260 261 260 257 257 258 258 258 258 259 259 260 261 263 263 266 268 271
252 252 254 254 255 257 259 260 260 261 262 262 263 263 263 263 262 262 260 260 258 258 258 258 259 259 259 258 257 258 259 260 261 261 259 258 259 259 260 260 260 261 261 260 261 263 264 265 268
253 253 255 256 257 259 262 263 264 263 262 262 264 263 263 263 262 261 261 261 259 259 258 257 257 258 258 259 257 257 258 259 260 261 261 260 259 259 259 260 261 261 260 260 261 262 264 265 267
255 256 256 258 259 260 262 264 265 264 264 264 265 264 263 263 262 261 261 261 259 257 258 257 257 258 258 259 258 257 258 258 259 260 261 261 261 260 260 259 260 261 261 262 262 263 264 266 267
255 257 258 259 260 261 263 265 266 265 265 265 265 265 264 262 261 260 259 259 259 257 257 256 257 257 258 257 257 257 257 257 258 259 260 261 261 262 261 259 260 260 260 261 262 263 265 266 268
257 259 261 262 262 263 265 266 267 269 268 267 265 264 263 263 261 259 258 258 259 258 256 256 257 257 257 256 255 256 256 257 258 259 259 261 261 261 262 261 259 260 261 261 262 263 265 266 268
260 261 263 265 265 266 266 267 268 269 269 267 266 265 264 263 263 261 259 258 258 258 257 256 256 256 256 255 255 255 256 256 257 258 258 259 261 262 262 262 260 260 261 262 263 264 265 267 269
261 263 265 266 266 267 268 268 268 269 269 268 266 265 265 265 264 262 261 260 259 257 257 256 255 255 255 255 255 255 255 256 256 257 258 259 261 261 261 262 261 260 260 262 263 264 265 267 269
263 265 267 268 268 269 269 269 270 271 270 267 266 266 266 265 265 264 261 259 257 257 256 256 255 253 254 255 256 255 255 256 257 258 259 260 261 260 260 261 262 262 261 261 263 264 266 267 268
264 266 268 269 269 269 269 270 271 271 269 269 269 268 268 267 266 264 261 258 257 257 256 254 254 254 253 254 255 256 256 256 257 258 259 260 261 261 261 261 261 261 261 261 263 265 266 267 268
267 268 268 269 270 271 271 272 272 272 270 270 270 269 270 269 267 264 260 258 257 257 257 255 254 254 254 254 254 256 257 258 259 258 259 260 260 261 263 262 262 262 262 262 263 264 265 266 267
269 268 267 268 270 270 272 272 272 272 272 271 271 272 271 270 269 265 262 259 257 256 255 255 253 253 254 255 254 255 257 257 257 259 260 261 260 261 263 263 263 263 263 262 264 265 266 267 267
269 268 267 268 270 271 272 272 273 273 272 272 273 273 272 272 271 267 264 260 258 255 254 254 254 253 253 254 254 255 256 257 258 259 260 260 261 262 262 263 264 264 264 264 265 266 267 268 269
270 269 269 269 270 271 272 273 274 273 272 273 274 273 273 273 271 269 267 264 260 256 254 254 253 252 252 252 253 255 255 257 259 260 261 260 261 262 263 263 264 265 265 266 266 266 267 267 269
271 271 271 269 270 271 272 273 274 274 274 274 274 273 273 273 271 270 270 268 262 257 255 254 253 253 252 252 253 255 256 257 258 260 262 262 262 262 263 263 264 265 266 266 267 265 266 267 268
271 272 272 272 271 271 272 272 275 275 275 276 275 273 273 273 272 272 271 269 263 258 255 254 253 254 253 253 255 255 257 258 258 260 262 262 262 262 263 263 264 265 265 265 265 266 266 267 269
272 273 274 274 273 273 274 275 276 276 277 278 277 275 274 273 272 272 271 269 264 258 256 256 254 254 253 254 256 258 258 259 259 260 261 263 264 263 264 264 263 263 263 264 265 266 267 268 270
275 276 277 278 276 275 276 277 277 277 277 278 279 277 275 273 273 272 270 266 264 261 260 259 257 255 255 255 256 258 259 259 260 260 261 263 264 265 263 262 261 262 262 264 265 266 267 268 270
277 278 280 280 279 278 278 278 278 278 279 279 279 277 275 274 274 272 270 267 265 262 262 261 259 256 256 256 257 258 258 259 260 260 261 262 264 265 263 262 262 261 261 263 265 267 267 268 269
279 280 281 281 279 280 281 279 279 279 280 281 280 279 276 275 274 273 271 269 267 264 265 263 260 258 257 258 258 259 259 260 260 260 261 263 263 264 265 263 263 262 261 262 264 266 266 267 269
280 282 283 284 282 282 283 281 281 282 281 281 281 280 278 276 275 273 271 271 268 267 266 263 261 258 258 259 261 261 260 260 261 261 261 263 264 265 265 265 265 264 262 261 263 265 266 267 269
281 283 285 286 285 284 285 287 286 285 284 281 280 281 280 277 276 275 272 272 270 268 266 263 261 259 259 261 262 261 261 260 261 261 261 263 265 265 265 265 265 265 263 262 263 264 266 266 267
282 285 287 288 287 286 287 289 290 290 287 284 283 283 282 279 278 276 273 272 271 269 266 262 261 260 260 262 262 260 259 260 261 261 261 263 265 266 265 265 265 265 265 264 264 265 266 267 267
281 285 289 291 291 289 288 290 292 293 292 288 284 283 284 280 279 277 274 273 273 270 265 261 261 261 261 263 263 261 261 261 261 261 261 262 266 266 264 264 264 265 266 265 265 265 266 267 268
280 284 290 295 296 293 291 291 295 295 293 292 288 285 285 281 278 277 276 275 273 269 265 264 264 264 263 264 266 264 263 262 262 262 262 262 266 266 264 265 265 266 266 266 265 263 264 266 267
279 284 289 294 296 294 292 294 298 297 294 291 289 287 288 284 282 282 279 276 272 270 267 265 269 268 266 266 267 267 265 263 264 265 264 263 265 266 265 265 266 267 267 267 266 264 264 265 265
278 281 285 289 292 292 292 294 297 297 293 291 290 289 289 288 286 284 281 277 275 273 273 271 270 271 269 270 270 269 267 265 267 268 266 265 266 266 266 266 266 267 268 268 266 264 264 265 263
278 281 282 284 288 291 292 293 297 295 293 292 293 290 289 288 285 283 281 280 277 276 276 276 274 274 274 273 271 270 268 269 270 268 267 268 267 266 265 265 267 269 270 269 267 265 264 262 262
279 280 281 283 283 287 292 294 296 297 296 294 292 291 290 290 289 284 282 280 279 279 279 279 278 277 276 274 273 270 270 270 268 265 265 267 267 266 266 267 268 271 272 272 269 266 264 262 263
279 280 281 281 282 284 289 293 294 295 295 293 292 291 291 291 290 287 282 281 281 282 282 282 282 279 278 276 275 272 271 270 267 265 266 268 268 269 269 268 269 272 273 272 270 266 263 263 264
Height
5820 5821 5823 5824 5825 5826 5827 5830 5831 5833 5834 5834 5834 5835 5836 5836 5837 5840 5839 5839 5840 5841 5842 5843 5843 5844 5845 5846 5846 5847 5847 5848 5848 5849 5849 5849 5850 5850 5851 5851 5852 5852 5853 5853 5853 5854 5854 5854 5854
5816 5817 5819 5820 5820 5821 5824 5826 5827 5828 5829 5829 5830 5831 5831 5831 5832 5832 5832 5833 5835 5836 5838 5838 5839 5840 5841 5842 5842 5843 5844 5844 5845 5845 5846 5846 5846 5847 5847 5848 5849 5849 5849 5850 5850 5850 5851 5851 5851
5812 5813 5814 5815 5816 5818 5820 5821 5822 5823 5823 5824 5825 5825 5826 5825 5826 5826 5827 5828 5830 5831 5832 5834 5835 5835 5836 5837 5838 5839 5840 5840 5841 5841 5842 5842 5843 5843 5844 5844 5845 5845 5845 5846 5846 5847 5847 5847 5848
5807 5809 5810 5811 5812 5814 5815 5816 5817 5816 5817 5818 5818 5818 5819 5819 5819 5820 5821 5822 5824 5825 5826 5828 5829 5830 5831 5832 5833 5834 5835 5836 5837 5837 5838 5838 5838 5839 5839 5840 5841 5841 5841 5842 5842 5843 5843 5844 5844
5802 5803 5804 5805 5807 5808 5809 5810 5810 5809 5810 5811 5811 5811 5811 5812 5812 5813 5814 5815 5817 5818 5820 5821 5823 5824 5825 5827 5828 5829 5830 5831 5832 5832 5833 5834 5834 5834 5835 5836 5836 5837 5837 5838 5838 5839 5839 5839 5839
5797 5797 5798 5799 5801 5802 5803 5803 5803 5802 5803 5803 5803 5803 5803 5802 5803 5805 5806 5808 5809 5811 5813 5815 5816 5818 5819 5820 5822 5823 5824 5825 5826 5827 5828 5828 5829 5829 5830 5831 5831 5832 5832 5833 5834 5834 5834 5835 5835
5791 5792 5792 5793 5794 5795 5796 5796 5795 5794 5794 5794 5794 5794 5794 5793 5794 5797 5798 5800 5801 5803 5805 5807 5809 5810 5812 5813 5815 5816 5818 5819 5820 5821 5822 5823 5823 5824 5824 5825 5826 5826 5827 5828 5828 5829 5829 5830 5830
5785 5786 5786 5786 5787 5788 5788 5787 5786 5785 5786 5786 5785 5785 5785 5785 5786 5788 5790 5791 5793 5795 5797 5799 5801 5803 5805 5806 5808 5809 5811 5812 5814 5815 5816 5817 5817 5817 5818 5819 5819 5820 5821 5822 5823 5823 5824 5824 5825
5778 5779 5779 5779 5779 5780 5779 5779 5778 5777 5777 5777 5776 5776 5776 5776 5777 5778 5780 5781 5783 5785 5788 5790 5793 5795 5797 5799 5800 5802 5803 5805 5807 5808 5809 5810 5811 5811 5812 5812 5813 5814 5815 5816 5816 5817 5817 5818 5819
5771 5772 5772 5772 5771 5771 5771 5770 5770 5768 5768 5768 5768 5767 5767 5767 5767 5768 5770 5771 5773 5776 5778 5781 5784 5786 5788 5790 5792 5794 5795 5797 5799 5800 5801 5803 5804 5804 5805 5806 5807 5807 5808 5809 5810 5810 5811 5811 5812
5764 5765 5765 5765 5764 5764 5763 5763 5762 5761 5761 5760 5759 5759 5758 5757 5757 5758 5759 5761 5763 5766 5768 5771 5774 5777 5779 5781 5783 5785 5787 5789 5790 5792 5793 5795 5796 5797 5798 5799 5799 5800 5801 5802 5802 5803 5804 5804 5805
5757 5757 5758 5758 5757 5756 5756 5755 5754 5753 5753 5752 5751 5750 5749 5748 5748 5748 5749 5750 5753 5755 5758 5762 5765 5767 5770 5772 5774 5776 5778 5780 5782 5783 5785 5786 5787 5788 5789 5790 5791 5792 5793 5794 5795 5795 5796 5797 5797
5750 5750 5750 5750 5749 5749 5749 5748 5747 5747 5746 5744 5743 5742 5741 5740 5739 5738 5739 5740 5742 5745 5748 5751 5754 5757 5760 5762 5764 5767 5769 5771 5772 5774 5775 5777 5778 5779 5780 5782 5783 5784 5784 5785 5786 5787 5788 5788 5789
5744 5743 5743 5743 5742 5742 5742 5741 5740 5739 5737 5736 5735 5734 5732 5732 5731 5730 5730 5731 5732 5735 5738 5741 5744 5747 5750 5753 5755 5757 5760 5761 5763 5764 5765 5767 5768 5769 5771 5772 5773 5774 5775 5776 5777 5778 5779 5779 5780
5736 5736 5736 5736 5735 5734 5734 5734 5733 5731 5729 5728 5727 5725 5725 5724 5723 5722 5722 5722 5723 5725 5728 5731 5734 5737 5740 5743 5745 5747 5750 5752 5753 5755 5756 5757 5758 5760 5761 5763 5764 5765 5766 5767 5768 5769 5770 5771 5771
5730 5729 5729 5729 5727 5726 5727 5728 5726 5723 5722 5720 5719 5718 5717 5716 5715 5715 5714 5714 5715 5717 5719 5722 5725 5728 5731 5733 5735 5738 5740 5742 5743 5745 5746 5747 5749 5750 5751 5753 5754 5755 5757 5757 5758 5760 5761 5761 5762
5723 5723 5722 5722 5720 5719 5718 5719 5718 5716 5714 5712 5711 5710 5709 5709 5708 5707 5706 5706 5707 5708 5710 5713 5715 5718 5721 5723 5726 5728 5731 5732 5734 5735 5736 5737 5739 5739 5740 5742 5743 5745 5747 5748 5749 5750 5751 5752 5752
5717 5716 5715 5714 5713 5712 5711 5711 5709 5708 5706 5705 5703 5702 5701 5700 5700 5699 5699 5698 5699 5700 5702 5704 5706 5708 5711 5714 5716 5718 5721 5723 5724 5726 5727 5728 5729 5729 5730 5732 5733 5735 5737 5738 5739 5740 5741 5741 5742
5711 5710 5709 5708 5706 5705 5704 5703 5702 5700 5698 5697 5695 5694 5693 5692 5692 5691 5690 5691 5691 5692 5694 5695 5697 5699 5701 5704 5706 5709 5711 5712 5714 5716 5716 5718 5719 5719 5720 5722 5723 5724 5726 5727 5728 5729 5730 5731 5731
5705 5704 5703 5701 5699 5698 5697 5696 5695 5693 5691 5689 5687 5686 5685 5684 5684 5683 5683 5683 5683 5684 5685 5686 5687 5689 5691 5693 5696 5698 5700 5702 5703 5705 5706 5708 5709 5709 5710 5712 5713 5714 5715 5716 5717 5718 5719 5720 5720
5699 5697 5696 5694 5693 5692 5690 5689 5688 5686 5684 5682 5680 5678 5677 5676 5676 5676 5676 5675 5675 5676 5676 5677 5678 5680 5682 5684 5686 5687 5689 5691 5693 5695 5696 5697 5698 5700 5700 5701 5702 5703 5704 5705 5706 5707 5708 5709 5710
5693 5692 5690 5688 5686 5685 5683 5681 5681 5679 5677 5675 5673 5672 5671 5670 5669 5668 5668 5667 5667 5667 5668 5668 5670 5671 5673 5674 5676 5677 5679 5680 5682 5685 5686 5687 5688 5689 5689 5691 5691 5692 5693 5694 5695 5696 5697 5698 5699
5687 5686 5685 5683 5680 5679 5677 5675 5676 5672 5670 5669 5668 5666 5664 5663 5662 5661 5661 5660 5659 5660 5660 5661 5662 5663 5664 5665 5666 5668 5669 5670 5672 5674 5676 5677 5678 5678 5678 5680 5681 5682 5683 5683 5684 5685 5686 5687 5688
5682 5681 5680 5677 5675 5674 5673 5670 5669 5667 5665 5663 5662 5660 5658 5657 5656 5655 5654 5653 5652 5652 5652 5653 5654 5654 5655 5656 5657 5659 5660 5661 5662 5664 5666 5666 5667 5668 5668 5670 5671 5672 5673 5673 5673 5674 5675 5677 5678
5677 5676 5674 5672 5669 5669 5668 5665 5665 5662 5659 5657 5656 5655 5653 5651 5650 5649 5648 5647 5646 5646 5646 5646 5646 5647 5648 5648 5649 5649 5650 5651 5652 5654 5655 5656 5657 5658 5659 5660 5661 5662 5662 5663 5663 5664 5665 5667 5668
5671 5670 5669 5666 5664 5664 5662 5660 5660 5657 5655 5652 5651 5649 5648 5646 5644 5643 5642 5641 5640 5640 5639 5639 5639 5639 5640 5640 5640 5641 5641 5642 5643 5644 5645 5646 5647 5649 5649 5651 5652 5652 5652 5652 5653 5654 5655 5657 5658
5666 5665 5664 5662 5659 5658 5657 5656 5655 5653 5650 5648 5646 5644 5642 5641 5639 5638 5636 5635 5635 5634 5633 5632 5632 5631 5631 5632 5632 5632 5633 5633 5634 5634 5635 5637 5638 5640 5640 5641 5642 5642 5643 5643 5643 5644 5645 5646 5648
5660 5659 5658 5656 5654 5652 5652 5651 5650 5647 5645 5644 5641 5639 5637 5636 5634 5632 5631 5630 5629 5628 5627 5626 5624 5624 5623 5623 5623 5624 5624 5624 5624 5625 5626 5628 5629 5630 5631 5631 5632 5632 5633 5632 5633 5634 5635 5636 5638
5655 5654 5652 5650 5649 5647 5645 5648 5644 5642 5639 5637 5635 5633 5632 5630 5628 5626 5625 5624 5623 5622 5620 5619 5617 5616 5615 5615 5614 5614 5615 5615 5616 5617 5618 5619 5620 5620 5621 5622 5622 5623 5622 5622 5623 5624 5625 5627 5629
5649 5648 5647 5646 5644 5642 5640 5643 5639 5637 5634 5632 5630 5628 5626 5624 5622 5620 5619 5618 5617 5615 5614 5612 5610 5609 5608 5607 5606 5606 5606 5606 5607 5608 5610 5610 5610 5611 5611 5612 5612 5613 5613 5613 5613 5614 5615 5617 5619